カタログに戻る

WESTFORD NEEDLES

LostPO
NORAD 19299·DEBRIS·🇺🇸 United States

打ち上げ May 9, 1963 から Vandenberg Space Force Base

Loading…

次のパス (今後24時間)

TLE

古いSource: Space-Track

元期: Dec 3, 2025, 07:52 UTC

1 19299U 63014EL  25337.32789471 -.00000152  00000-0 -68871-1 0  9996
2 19299  87.2571 107.3487 0266974  48.5318 313.8137  8.67219330211442

AllMySatでWESTFORD NEEDLESをリアルタイム追跡

Download on the App Store